Overview Statistics Trail Chart Weather Telemetry Raw packets
 

This is the latest recevied weather packets stored in our database for station/object N9VPV. If no packets are shown the sender has not sent any weather packets the latest 10 day(s).

<< 1 2 3 4 >>
Time Temp. Humidity Pressure Rain* Wind** Luminosity Snow
1788576775 28.33° C 81% 1012.8 hPa 0 mm - 5 W/m² -
1788575853 28.33° C 82% 1012.8 hPa 0 mm - 0 W/m² -
1788574946 28.33° C 81% 1012.8 hPa 0 mm - 7 W/m² -
1788574045 28.89° C 80% 1012.6 hPa 0 mm - 12 W/m² -
1788573130 28.89° C 80% 1012.7 hPa 0 mm - 14 W/m² -
1788572224 28.89° C 78% 1012.4 hPa 0 mm - 19 W/m² -
1788571285 29.44° C 77% 1012.4 hPa 0 mm - 23 W/m² -
1788570385 30° C 75% 1012.3 hPa 0 mm - 21 W/m² -
1788569485 30.56° C 74% 1012.2 hPa 0 mm - 0 W/m² -
1788568580 31.11° C 71% 1012.2 hPa 0 mm - 0 W/m² -
1788567657 31.67° C 68% 1012.3 hPa 0 mm - 0 W/m² -
1788566758 32.22° C 67% 1012.2 hPa 0 mm - 0 W/m² -
1788565851 32.78° C 66% 1012.2 hPa 0 mm - 0 W/m² -
1788564951 32.78° C 64% 1012.1 hPa 0 mm - 0 W/m² -
1788564051 33.33° C 63% 1012 hPa 0 mm - 0 W/m² -
1788563148 33.89° C 60% 1012 hPa 0 mm - 0 W/m² -
1788562247 33.89° C 60% 1012 hPa 0 mm - 30 W/m² -
1788561333 34.44° C 59% 1012.2 hPa 0 mm - 60 W/m² -
1788560434 34.44° C 60% 1012.2 hPa 0 mm - 84 W/m² -
1788559527 34.44° C 58% 1012.3 hPa 0 mm - 109 W/m² -
1788558627 35° C 58% 1012.4 hPa 0 mm - 141 W/m² -
1788557724 35° C 56% 1012.5 hPa 0 mm - 172 W/m² -
1788556820 35° C 58% 1012.4 hPa 0 mm - 211 W/m² -
1788555920 35° C 57% 1012.5 hPa 0 mm - 251 W/m² -
1788555017 35° C 56% 1012.6 hPa 0 mm - 299 W/m² -

* Rain latest hour (hover to see other rain measurements)
** Current wind speed in m/s (hover to see current wind gust speed)